This is the latest recevied weather packets stored in our database for station/object K0SNA. If no packets are shown the sender has not sent any weather packets the latest 10 day(s).
| Time | Temp. | Humidity | Pressure | Rain* | Wind** | Luminosity | Snow |
|---|---|---|---|---|---|---|---|
| 1777304937 | 13.33° C | 91% | 1000.5 hPa | 0 mm | - | 86 W/m² | - |
| 1777304634 | 13.33° C | 91% | 1000.5 hPa | 0 mm | - | 100 W/m² | - |
| 1777304331 | 13.33° C | 91% | 1000.8 hPa | 0 mm | - | 93 W/m² | - |
| 1777304028 | 13.33° C | 91% | 1000.8 hPa | 0 mm | - | 136 W/m² | - |
| 1777303724 | 13.33° C | 91% | 1001 hPa | 0 mm | - | 146 W/m² | - |
| 1777303416 | 13.33° C | 91% | 1000.9 hPa | 0 mm | - | 150 W/m² | - |
| 1777303114 | 13.33° C | 90% | 1001.2 hPa | 0 mm | - | 122 W/m² | - |
| 1777302813 | 13.33° C | 90% | 1001.2 hPa | 0 mm | - | 118 W/m² | - |
| 1777302509 | 13.33° C | 90% | 1001.6 hPa | 0 mm | - | 87 W/m² | - |
| 1777302207 | 13.33° C | 89% | 1001.8 hPa | 0 mm | - | 72 W/m² | - |
| 1777301904 | 13.33° C | 89% | 1001.7 hPa | 0 mm | - | 65 W/m² | - |
| 1777301601 | 13.33° C | 89% | 1001.9 hPa | 1.78 mm | - | 61 W/m² | - |
| 1777301299 | 13.33° C | 88% | 1001.8 hPa | 1.78 mm | - | 76 W/m² | - |
| 1777300996 | 13.33° C | 87% | 1001.9 hPa | 0 mm | - | 63 W/m² | - |
| 1777300693 | 12.78° C | 87% | 1001.9 hPa | 0 mm | - | 38 W/m² | - |
| 1777300390 | 12.78° C | 87% | 1002.1 hPa | 0 mm | - | 28 W/m² | - |
| 1777300088 | 12.78° C | 87% | 1002.2 hPa | 0 mm | - | 35 W/m² | - |
| 1777299784 | 12.78° C | 87% | 1002 hPa | 0 mm | - | 34 W/m² | - |
| 1777299482 | 12.78° C | 87% | 1002.3 hPa | 0 mm | - | 31 W/m² | - |
| 1777299179 | 12.78° C | 87% | 1002.3 hPa | 0 mm | - | 29 W/m² | - |
| 1777298876 | 12.78° C | 87% | 1002.5 hPa | 0 mm | - | 33 W/m² | - |
| 1777298573 | 12.78° C | 87% | 1002.4 hPa | 0 mm | - | 29 W/m² | - |
| 1777298269 | 12.78° C | 87% | 1002.7 hPa | 0 mm | - | 38 W/m² | - |
| 1777297965 | 12.78° C | 88% | 1002.6 hPa | 0 mm | - | 32 W/m² | - |
| 1777297661 | 12.78° C | 88% | 1002.7 hPa | 0 mm | - | 23 W/m² | - |
* Rain latest hour (hover to see other rain measurements)
** Current wind speed in m/s (hover to see current wind gust speed)